STARLINK-34079 (64038 NORAD) Tracking and Keplerian Element Data

This shows tracking and keplerian element data for the satellite.

Feedback or suggestion? Click here.




ElementValue
Catalog64038
NameSTARLINK-34079
Epoch Orbit3415
Epoch Day354.22994779
Epoch Year2025
RAAN314.6457
Inclination70.0012
Eccentricity0.0002834
Argument of Perigee269.8082
Mean Anonmoly90.2752
Mean Motion14.98333315
Decay Rate3.137E-05
L11 64038U 25102S 25354.22994779 .00003137 00000+0 27054-3 0 9993
L22 64038 70.0012 314.6457 0002834 269.8082 90.2752 14.98333315 34153



Live tracking and technical data element details for STARLINK-34079 (NORAD 64038). STARLINK-34079 can be tracked NOW for your location showing map with azimuth and elevation plus other details from your city location.







IsCatalogInMostPopularTable: catalog: 64038, numindb: 3
Update: records affected: 1



GetName: 64038 STARLINK-34079

Hit Count: updated at: Mon, 09 Feb 2026 08:47:40 GMT